STARLINK-2110, 47389

Orbit data source: Space-Track

STARLINK-2110, 47389 is a payload satellite owned by SpaceX/Seattle (US) in LEO that was launched on Wed, 20 Jan 2021 UTC via an FALCON 9 launch vehicle from the Air Force Eastern Test Range (AFETR). Payload-class satellites include a variety of spacecraft equipped with specific instruments for various scientific and technological missions. These include communications satellites like Starlink; space stations such as the ISS; scientific satellites like the Hubble; Earth observation satellites from companies like Planet Labs, Umbra, and HawkEye 360; GPS; miniature CubeSats for education and research; and military/defense satellites.

Loading next visibility...
Identifier
47389, 2021-005AS
Orbit
LEO
Country
Flag of USUS
Related business
Manufacturer
SpaceX/Seattle
Mission
Operational Commercial Communications
Bus & Motor
STARLINK, Unknown motor
Mass
260 kg wet, ~248 kg dry
Launch date (UTC)
2021-01-20 (5 years ago)
Launch vehicle
FALCON 9
Launch site
Air Force Eastern Test Range (AFETR)
Object type
Payload
Rocket body
Debris
Shape & HBR
Box + 1 Pan, 10.1 m
Radar Cross Section
13.562 m², Large (>1 m²)

Expand to show TLE details & history
Last TLE update: 3 days ago

TLE from 3 days ago
0 STARLINK-2110
1 47389U 21005AS  26170.70731151  .00008162  00000-0  27439-3 0  9995
2 47389  53.1590 282.1316 0001431  82.1580 277.9583 15.31713026299024
Epoch: 2026-06-19T16:58Z
TLE epoch observation values (Epoch: 2026-06-19T16:58:31.714Z)
Latitude
-0.00009°
Longitude
119.56697°
Altitude
471.466 km
Speed
7.632 km/s
True Right ascension
18h 48m 31s
True Declination
0° 00' 00"
Sunlit
Object was in full shadow at epoch
Visualization orbit readout
Latitude
Unknown
Longitude
Unknown
Altitude
Unknown
Speed
Unknown
Apparent Right ascension
Unknown
Apparent Declination
Unknown
Sunlit
N/A
Visualization observer readout
Local Sidereal Time
21:30:23
Azimuth
Unknown
Elevation
Unknown
Doppler factor
Unknown
Orbital elements
Apogee altitude
471.938 km
Perigee altitude
469.978 km
Semi-major axis
6,849.095 km
Eccentricity
0.00014
Inclination
53.159°
RAAN
282.1316°
Arg. of periapsis
82.158°
True anomaly
277.94206°
Mean anomaly
277.9583°
Eccentric anomaly
277.95018°
Mean motion
3.82907 °/min
Orbital period
94.02 mins
BSTAR
0.00027439
Loading maneuver chart data...
Computing Atmospheric mass density...

Documentation

Showing up to 5 results
|